QPF
0.01 0.01 0.01 0.01 0.01 0.02 0.02 0.02 0.03 0.03 0.02 0.02 0.02 0.02 0.02 0.02 0.02 0.01 0.01 0.02 0.02 0.02 0.03 0.02 0.02 0.02 0.02 0.02 0.04 0.05 0.06 0.06 0.07 0.08 0.07 0.06 0.06 0.06
0.01 0.01 0.01 0.01 0.01 0.01 0.01 0.02 0.03 0.03 0.03 0.02 0.01 0.01 0.01 0.01 0.02 0.02 0.02 0.02 0.02 0.02 0.02 0.02 0.02 0.02 0.02 0.02 0.02 0.02 0.04 0.04 0.04 0.05 0.05 0.05 0.06 0.06
0.02 0.02 0.02 0.02 0.01 0.01 0.01 0.02 0.02 0.02 0.02 0.02 0.01 0.01 0.01 0.02 0.02 0.02 0.02 0.02 0.02 0.02 0.02 0.02 0.01 0.01 0.01 0.01 0.02 0.01 0.02 0.03 0.04 0.04 0.04 0.04 0.05 0.06
0.03 0.02 0.02 0.02 0.01 0.01 0.01 0.02 0.02 0.02 0.02 0.02 0.01 0.02 0.02 0.02 0.03 0.03 0.03 0.03 0.03 0.02 0.02 0.02 0.02 0.01 0.01 0.01 0.01 0.01 0.01 0.01 0.02 0.03 0.04 0.05 0.05 0.05
0.04 0.03 0.02 0.02 0.02 0.01 0.01 0.01 0.02 0.03 0.03 0.03 0.02 0.02 0.02 0.02 0.03 0.03 0.03 0.03 0.03 0.03 0.02 0.02 0.02 0.02 0.01 0.01 0.01 0.01 0.01 0.01 0.01 0.01 0.02 0.03 0.05 0.06
0.05 0.03 0.03 0.03 0.02 0.01 0.01 0.01 0.01 0.02 0.03 0.02 0.03 0.03 0.03 0.03 0.03 0.03 0.03 0.02 0.02 0.02 0.02 0.01 0.01 0.01 0.01 0.01 0.01 0.01 0.01 0.01 0.01 0.01 0.02 0.03 0.04 0.04
0.05 0.03 0.02 0.02 0.03 0.02 0.02 0.01 0.01 0.02 0.04 0.04 0.04 0.03 0.03 0.03 0.03 0.02 0.02 0.01 0.01 0.01 0.01 0.01 0.01 0.01 0.00 0.01 0.01 0.01 0.01 0.01 0.01 0.01 0.02 0.03 0.03 0.05
0.04 0.03 0.02 0.02 0.03 0.03 0.02 0.02 0.02 0.02 0.02 0.03 0.04 0.04 0.04 0.03 0.03 0.02 0.02 0.02 0.01 0.01 0.01 0.01 0.01 0.00 0.01 0.01 0.01 0.01 0.01 0.01 0.01 0.01 0.02 0.03 0.04 0.05
0.04 0.03 0.02 0.02 0.02 0.02 0.02 0.02 0.02 0.02 0.01 0.02 0.02 0.02 0.03 0.03 0.03 0.02 0.02 0.02 0.02 0.01 0.01 0.01 0.01 0.01 0.01 0.02 0.02 0.01 0.01 0.01 0.01 0.02 0.02 0.03 0.04 0.06
0.03 0.03 0.02 0.02 0.02 0.02 0.02 0.03 0.03 0.02 0.02 0.01 0.01 0.02 0.02 0.02 0.02 0.03 0.03 0.03 0.02 0.02 0.02 0.02 0.01 0.01 0.01 0.02 0.02 0.02 0.02 0.01 0.02 0.01 0.02 0.02 0.03 0.04
0.03 0.03 0.02 0.02 0.02 0.02 0.02 0.03 0.03 0.03 0.02 0.02 0.02 0.02 0.02 0.02 0.02 0.02 0.02 0.03 0.03 0.02 0.02 0.02 0.01 0.01 0.01 0.01 0.02 0.02 0.01 0.01 0.01 0.01 0.01 0.02 0.03 0.03
0.03 0.03 0.04 0.02 0.02 0.02 0.02 0.02 0.02 0.02 0.02 0.02 0.02 0.03 0.03 0.02 0.02 0.01 0.02 0.02 0.02 0.02 0.01 0.02 0.02 0.02 0.02 0.01 0.01 0.01 0.01 0.01 0.01 0.01 0.01 0.01 0.02 0.04
0.03 0.03 0.03 0.03 0.02 0.02 0.02 0.02 0.02 0.02 0.02 0.03 0.03 0.02 0.02 0.02 0.02 0.02 0.02 0.02 0.03 0.02 0.01 0.03 0.03 0.02 0.02 0.02 0.01 0.01 0.01 0.01 0.01 0.01 0.01 0.01 0.02 0.03
0.04 0.03 0.03 0.03 0.03 0.02 0.02 0.02 0.03 0.03 0.03 0.03 0.03 0.03 0.03 0.02 0.02 0.02 0.01 0.01 0.01 0.02 0.01 0.02 0.03 0.03 0.03 0.03 0.02 0.02 0.01 0.01 0.01 0.01 0.01 0.01 0.03 0.03
0.04 0.04 0.04 0.03 0.02 0.02 0.02 0.02 0.02 0.02 0.03 0.03 0.03 0.03 0.02 0.02 0.01 0.01 0.01 0.01 0.01 0.01 0.01 0.01 0.02 0.02 0.03 0.03 0.02 0.01 0.01 0.01 0.01 0.01 0.01 0.01 0.02 0.03
0.04 0.04 0.04 0.03 0.02 0.02 0.01 0.01 0.01 0.02 0.02 0.03 0.03 0.03 0.02 0.02 0.01 0.01 0.01 0.01 0.01 0.01 0.01 0.01 0.01 0.01 0.02 0.02 0.01 0.01 0.01 0.01 0.01 0.02 0.02 0.02 0.03 0.03
0.03 0.02 0.02 0.03 0.02 0.02 0.01 0.01 0.01 0.02 0.02 0.03 0.03 0.03 0.02 0.01 0.01 0.01 0.01 0.01 0.01 0.01 0.01 0.01 0.01 0.01 0.01 0.01 0.01 0.01 0.01 0.01 0.01 0.02 0.03 0.04 0.03 0.03
0.02 0.02 0.02 0.02 0.01 0.01 0.01 0.01 0.01 0.02 0.02 0.02 0.02 0.02 0.02 0.02 0.02 0.01 0.01 0.01 0.01 0.01 0.01 0.01 0.01 0.01 0.01 0.01 0.01 0.01 0.01 0.01 0.01 0.02 0.04 0.04 0.04 0.03
0.02 0.02 0.01 0.01 0.01 0.01 0.01 0.01 0.01 0.01 0.01 0.01 0.02 0.02 0.02 0.02 0.02 0.01 0.01 0.01 0.01 0.01 0.01 0.01 0.01 0.01 0.02 0.01 0.01 0.01 0.01 0.01 0.01 0.02 0.03 0.04 0.04 0.04
0.02 0.02 0.01 0.01 0.01 0.01 0.01 0.01 0.01 0.01 0.01 0.01 0.01 0.01 0.01 0.01 0.01 0.01 0.01 0.01 0.01 0.01 0.01 0.01 0.01 0.02 0.02 0.02 0.02 0.01 0.01 0.01 0.02 0.02 0.03 0.04 0.04 0.03
0.02 0.01 0.01 0.01 0.01 0.01 0.01 0.01 0.01 0.01 0.01 0.01 0.01 0.01 0.01 0.01 0.01 0.01 0.01 0.01 0.01 0.01 0.01 0.01 0.01 0.01 0.01 0.01 0.01 0.01 0.01 0.01 0.01 0.02 0.03 0.04 0.04 0.04
0.01 0.01 0.01 0.01 0.01 0.01 0.01 0.01 0.01 0.01 0.01 0.01 0.01 0.01 0.01 0.01 0.01 0.01 0.01 0.01 0.01 0.01 0.01 0.01 0.01 0.01 0.01 0.02 0.01 0.01 0.01 0.01 0.01 0.01 0.02 0.04 0.05 0.05
0.01 0.02 0.01 0.01 0.01 0.01 0.01 0.01 0.01 0.01 0.01 0.01 0.01 0.01 0.01 0.01 0.01 0.01 0.01 0.01 0.01 0.01 0.01 0.01 0.01 0.01 0.01 0.01 0.01 0.01 0.01 0.01 0.01 0.01 0.01 0.02 0.03 0.04
MSLP
1004.05 1004.50 1005.23 1006.21 1007.40 1008.74 1010.17 1011.65 1013.11 1014.50 1015.78 1016.93 1017.92 1018.76 1019.46 1020.04 1020.53 1020.96 1021.37 1021.78 1022.20 1022.65 1023.10 1023.56 1023.99 1024.39 1024.73 1025.00 1025.22 1025.38 1025.49 1025.56 1025.59 1025.60 1025.56 1025.48 1025.33 1025.11
1003.10 1003.40 1003.99 1004.86 1005.98 1007.32 1008.81 1010.39 1012.01 1013.60 1015.10 1016.48 1017.71 1018.76 1019.64 1020.36 1020.96 1021.46 1021.90 1022.31 1022.71 1023.11 1023.52 1023.92 1024.30 1024.64 1024.94 1025.19 1025.39 1025.54 1025.65 1025.73 1025.78 1025.80 1025.78 1025.71 1025.58 1025.37
1002.32 1002.47 1002.92 1003.67 1004.71 1006.00 1007.49 1009.12 1010.84 1012.58 1014.27 1015.85 1017.29 1018.55 1019.63 1020.53 1021.27 1021.88 1022.39 1022.84 1023.25 1023.63 1024.01 1024.36 1024.70 1024.99 1025.25 1025.46 1025.63 1025.76 1025.85 1025.93 1025.97 1026.00 1025.99 1025.93 1025.81 1025.63
1001.68 1001.72 1002.05 1002.67 1003.60 1004.81 1006.25 1007.88 1009.64 1011.46 1013.28 1015.02 1016.64 1018.09 1019.36 1020.44 1021.35 1022.10 1022.72 1023.25 1023.72 1024.13 1024.51 1024.85 1025.16 1025.42 1025.64 1025.82 1025.95 1026.04 1026.11 1026.16 1026.19 1026.21 1026.20 1026.15 1026.04 1025.88
1001.15 1001.11 1001.34 1001.86 1002.67 1003.77 1005.13 1006.71 1008.45 1010.29 1012.16 1014.00 1015.75 1017.35 1018.79 1020.05 1021.13 1022.05 1022.82 1023.47 1024.02 1024.51 1024.93 1025.30 1025.61 1025.87 1026.07 1026.21 1026.31 1026.38 1026.41 1026.43 1026.43 1026.43 1026.40 1026.35 1026.26 1026.12
1000.68 1000.60 1000.76 1001.19 1001.90 1002.89 1004.15 1005.63 1007.30 1009.10 1010.97 1012.84 1014.66 1016.37 1017.94 1019.35 1020.59 1021.67 1022.60 1023.40 1024.09 1024.68 1025.19 1025.62 1025.98 1026.26 1026.46 1026.60 1026.68 1026.71 1026.71 1026.70 1026.67 1026.64 1026.60 1026.54 1026.46 1026.34
1000.22 1000.13 1000.26 1000.63 1001.26 1002.16 1003.31 1004.69 1006.26 1007.97 1009.78 1011.63 1013.46 1015.22 1016.87 1018.39 1019.77 1021.00 1022.09 1023.04 1023.88 1024.60 1025.23 1025.75 1026.18 1026.52 1026.76 1026.91 1026.99 1027.00 1026.98 1026.94 1026.88 1026.83 1026.77 1026.71 1026.64 1026.54
999.71 999.66 999.79 1000.15 1000.74 1001.57 1002.64 1003.91 1005.37 1006.98 1008.70 1010.47 1012.26 1014.02 1015.70 1017.28 1018.75 1020.10 1021.32 1022.42 1023.40 1024.27 1025.02 1025.66 1026.18 1026.59 1026.89 1027.09 1027.19 1027.21 1027.19 1027.13 1027.06 1026.99 1026.92 1026.86 1026.80 1026.72
999.13 999.14 999.33 999.72 1000.31 1001.11 1002.12 1003.32 1004.69 1006.20 1007.81 1009.49 1011.20 1012.90 1014.57 1016.16 1017.68 1019.10 1020.41 1021.62 1022.72 1023.71 1024.59 1025.34 1025.97 1026.48 1026.86 1027.11 1027.26 1027.32 1027.31 1027.26 1027.19 1027.12 1027.06 1027.00 1026.95 1026.89
998.48 998.58 998.85 999.31 999.95 1000.78 1001.79 1002.95 1004.26 1005.68 1007.20 1008.78 1010.40 1012.02 1013.62 1015.19 1016.69 1018.12 1019.48 1020.76 1021.94 1023.02 1023.99 1024.85 1025.59 1026.19 1026.65 1026.98 1027.20 1027.31 1027.35 1027.33 1027.28 1027.23 1027.18 1027.14 1027.11 1027.07
997.77 997.98 998.37 998.94 999.67 1000.58 1001.62 1002.80 1004.08 1005.46 1006.91 1008.40 1009.93 1011.46 1012.97 1014.46 1015.91 1017.32 1018.66 1019.95 1021.16 1022.29 1023.33 1024.27 1025.08 1025.77 1026.32 1026.74 1027.03 1027.22 1027.32 1027.35 1027.35 1027.34 1027.31 1027.30 1027.28 1027.26
997.07 997.40 997.92 998.62 999.48 1000.49 1001.62 1002.85 1004.16 1005.52 1006.93 1008.36 1009.80 1011.24 1012.65 1014.05 1015.41 1016.74 1018.03 1019.28 1020.48 1021.62 1022.69 1023.67 1024.54 1025.30 1025.93 1026.43 1026.80 1027.07 1027.24 1027.35 1027.41 1027.44 1027.46 1027.47 1027.48 1027.47
996.41 996.88 997.54 998.38 999.38 1000.51 1001.75 1003.06 1004.42 1005.81 1007.21 1008.60 1009.98 1011.32 1012.64 1013.93 1015.18 1016.42 1017.62 1018.80 1019.96 1021.07 1022.13 1023.12 1024.03 1024.83 1025.52 1026.10 1026.55 1026.89 1027.14 1027.32 1027.45 1027.54 1027.60 1027.65 1027.69 1027.70
995.85 996.45 997.25 998.23 999.36 1000.63 1001.98 1003.38 1004.82 1006.25 1007.66 1009.03 1010.36 1011.63 1012.86 1014.04 1015.19 1016.31 1017.42 1018.51 1019.60 1020.66 1021.69 1022.67 1023.59 1024.42 1025.16 1025.78 1026.30 1026.71 1027.03 1027.28 1027.47 1027.61 1027.73 1027.81 1027.88 1027.91
995.40 996.12 997.04 998.15 999.41 1000.79 1002.25 1003.75 1005.25 1006.73 1008.16 1009.53 1010.82 1012.04 1013.19 1014.28 1015.33 1016.35 1017.37 1018.38 1019.39 1020.39 1021.39 1022.35 1023.26 1024.10 1024.86 1025.52 1026.08 1026.55 1026.92 1027.22 1027.45 1027.64 1027.80 1027.92 1028.01 1028.06
995.04 995.88 996.92 998.13 999.49 1000.97 1002.51 1004.08 1005.65 1007.17 1008.62 1009.98 1011.25 1012.43 1013.52 1014.54 1015.51 1016.46 1017.40 1018.34 1019.29 1020.25 1021.21 1022.15 1023.05 1023.90 1024.66 1025.34 1025.92 1026.40 1026.80 1027.13 1027.39 1027.61 1027.79 1027.93 1028.04 1028.11
994.74 995.70 996.84 998.14 999.57 1001.11 1002.71 1004.33 1005.94 1007.48 1008.95 1010.31 1011.56 1012.70 1013.75 1014.73 1015.65 1016.55 1017.45 1018.35 1019.28 1020.21 1021.15 1022.08 1022.97 1023.81 1024.57 1025.24 1025.81 1026.30 1026.69 1027.02 1027.29 1027.51 1027.69 1027.84 1027.96 1028.04
994.48 995.55 996.77 998.14 999.62 1001.20 1002.83 1004.48 1006.09 1007.64 1009.10 1010.45 1011.69 1012.81 1013.84 1014.79 1015.70 1016.59 1017.48 1018.38 1019.31 1020.25 1021.19 1022.12 1023.01 1023.83 1024.58 1025.23 1025.78 1026.23 1026.60 1026.90 1027.14 1027.34 1027.52 1027.66 1027.78 1027.86
994.23 995.40 996.69 998.11 999.63 1001.23 1002.86 1004.50 1006.11 1007.65 1009.09 1010.43 1011.65 1012.76 1013.78 1014.74 1015.65 1016.56 1017.47 1018.41 1019.36 1020.33 1021.30 1022.25 1023.14 1023.96 1024.69 1025.31 1025.82 1026.23 1026.55 1026.80 1026.99 1027.15 1027.29 1027.42 1027.52 1027.60
994.00 995.25 996.61 998.07 999.60 1001.20 1002.83 1004.44 1006.02 1007.53 1008.95 1010.26 1011.47 1012.57 1013.60 1014.57 1015.52 1016.47 1017.43 1018.42 1019.44 1020.46 1021.47 1022.44 1023.35 1024.17 1024.88 1025.46 1025.92 1026.28 1026.54 1026.73 1026.87 1026.98 1027.08 1027.17 1027.26 1027.33
993.82 995.15 996.56 998.03 999.57 1001.15 1002.75 1004.34 1005.88 1007.35 1008.73 1010.02 1011.20 1012.31 1013.35 1014.35 1015.34 1016.35 1017.38 1018.44 1019.52 1020.60 1021.67 1022.67 1023.60 1024.42 1025.11 1025.66 1026.08 1026.38 1026.58 1026.72 1026.80 1026.87 1026.93 1026.99 1027.05 1027.11
993.76 995.13 996.57 998.05 999.57 1001.12 1002.68 1004.22 1005.71 1007.14 1008.48 1009.74 1010.91 1012.02 1013.07 1014.11 1015.16 1016.22 1017.32 1018.45 1019.60 1020.75 1021.86 1022.91 1023.86 1024.68 1025.35 1025.88 1026.26 1026.52 1026.68 1026.78 1026.82 1026.86 1026.88 1026.92 1026.97 1027.01
993.85 995.25 996.68 998.15 999.64 1001.15 1002.66 1004.14 1005.58 1006.95 1008.25 1009.48 1010.64 1011.75 1012.82 1013.90 1014.99 1016.11 1017.27 1018.47 1019.68 1020.88 1022.03 1023.11 1024.07 1024.90 1025.57 1026.08 1026.45 1026.69 1026.83 1026.90 1026.93 1026.95 1026.97 1027.00 1027.04 1027.06
Thickness
5499 5499 5499 5499 5499 5498 5497 5495 5491 5490 5492 5493 5492 5493 5492 5491 5491 5490 5489 5488 5488 5487 5486 5485 5484 5482 5481 5481 5481 5481 5481 5480 5480 5480 5480 5480 5481 5481
5490 5490 5490 5489 5489 5488 5487 5486 5484 5483 5482 5483 5481 5481 5481 5480 5480 5479 5479 5478 5477 5476 5475 5474 5473 5472 5471 5470 5470 5470 5469 5469 5468 5468 5467 5468 5468 5469
5481 5481 5481 5480 5480 5479 5479 5477 5476 5474 5472 5472 5471 5471 5470 5470 5469 5468 5467 5467 5466 5465 5464 5463 5462 5461 5460 5459 5458 5458 5457 5457 5457 5456 5456 5456 5456 5457
5472 5472 5472 5471 5470 5470 5470 5469 5467 5466 5464 5462 5461 5460 5459 5458 5457 5456 5456 5455 5454 5453 5453 5452 5451 5450 5449 5448 5447 5447 5446 5446 5445 5444 5444 5445 5444 5444
5464 5464 5463 5462 5461 5461 5460 5460 5458 5458 5456 5454 5452 5450 5448 5447 5446 5445 5445 5443 5442 5441 5441 5441 5440 5439 5438 5437 5436 5436 5436 5435 5434 5433 5433 5433 5432 5432
5456 5456 5455 5454 5453 5452 5452 5451 5450 5448 5446 5444 5442 5440 5438 5436 5435 5434 5434 5433 5432 5431 5431 5430 5429 5428 5427 5427 5427 5426 5425 5424 5423 5422 5422 5422 5421 5422
5448 5448 5448 5447 5446 5445 5444 5443 5441 5439 5437 5435 5433 5431 5429 5427 5425 5424 5424 5423 5422 5421 5421 5420 5419 5418 5417 5416 5416 5415 5414 5413 5412 5412 5411 5411 5412 5412
5440 5440 5440 5439 5438 5438 5437 5436 5435 5432 5430 5428 5426 5423 5422 5419 5417 5415 5413 5412 5412 5412 5410 5410 5408 5407 5407 5407 5406 5405 5404 5403 5402 5402 5401 5401 5401 5402
5433 5433 5433 5432 5431 5430 5429 5428 5426 5425 5423 5421 5419 5416 5414 5413 5410 5408 5405 5403 5402 5402 5400 5400 5399 5398 5398 5397 5396 5395 5394 5393 5393 5392 5391 5391 5392 5393
5427 5427 5426 5425 5424 5423 5421 5419 5418 5417 5416 5414 5412 5410 5408 5405 5403 5400 5398 5396 5395 5393 5390 5390 5390 5389 5389 5387 5386 5385 5383 5383 5382 5382 5381 5381 5382 5384
5420 5420 5420 5418 5418 5417 5414 5412 5410 5408 5407 5406 5404 5402 5399 5397 5394 5391 5388 5387 5386 5385 5382 5380 5380 5379 5379 5379 5377 5375 5374 5373 5372 5372 5372 5373 5374 5375
5413 5413 5413 5412 5411 5410 5407 5404 5402 5400 5399 5397 5394 5392 5390 5387 5385 5383 5381 5378 5376 5375 5373 5371 5369 5368 5370 5371 5368 5366 5365 5364 5364 5364 5364 5365 5366 5367
5406 5406 5406 5405 5404 5403 5401 5398 5396 5393 5390 5388 5386 5383 5381 5378 5376 5374 5372 5370 5368 5366 5364 5361 5360 5358 5356 5358 5359 5357 5356 5356 5356 5356 5357 5358 5359 5360
5400 5399 5399 5398 5397 5395 5393 5391 5388 5386 5382 5380 5377 5375 5372 5370 5368 5366 5363 5361 5360 5358 5356 5353 5351 5349 5347 5347 5348 5349 5349 5348 5348 5349 5349 5351 5352 5352
5392 5392 5391 5390 5388 5386 5384 5382 5380 5377 5374 5371 5369 5366 5363 5361 5359 5357 5355 5353 5352 5350 5348 5345 5343 5341 5339 5338 5338 5339 5340 5341 5341 5341 5342 5343 5345 5346
5382 5382 5382 5381 5379 5377 5375 5373 5370 5367 5365 5363 5359 5357 5355 5352 5350 5349 5347 5345 5343 5341 5339 5337 5335 5333 5332 5331 5330 5331 5331 5331 5333 5334 5335 5337 5339 5340
5373 5373 5372 5370 5369 5367 5365 5363 5361 5358 5356 5354 5351 5349 5347 5345 5343 5341 5339 5337 5335 5333 5331 5329 5328 5327 5326 5324 5323 5324 5324 5325 5325 5326 5328 5331 5334 5334
5365 5364 5362 5361 5359 5358 5355 5354 5352 5350 5348 5346 5343 5341 5339 5337 5335 5334 5331 5329 5327 5325 5323 5322 5321 5320 5320 5319 5317 5317 5317 5318 5320 5321 5322 5324 5328 5331
5357 5356 5354 5352 5351 5349 5347 5346 5344 5342 5340 5338 5336 5334 5332 5330 5328 5327 5325 5323 5320 5318 5316 5314 5313 5312 5312 5312 5312 5311 5311 5313 5314 5316 5317 5319 5321 5325
5348 5347 5346 5344 5343 5342 5340 5338 5337 5335 5333 5331 5329 5327 5326 5324 5322 5320 5318 5316 5313 5311 5310 5308 5307 5305 5304 5304 5305 5306 5306 5307 5308 5311 5313 5315 5318 5321
5340 5339 5338 5337 5336 5335 5333 5332 5330 5329 5327 5325 5323 5321 5320 5318 5316 5314 5312 5310 5308 5305 5304 5303 5301 5300 5300 5299 5300 5302 5302 5303 5304 5305 5308 5311 5315 5318
5333 5332 5331 5331 5330 5328 5327 5326 5324 5323 5321 5320 5318 5316 5314 5312 5311 5309 5307 5304 5302 5300 5298 5297 5296 5296 5295 5295 5295 5296 5298 5301 5303 5304 5305 5307 5308 5312
5327 5326 5326 5325 5324 5323 5322 5320 5319 5318 5316 5315 5313 5311 5309 5307 5306 5304 5301 5299 5297 5295 5293 5292 5291 5291 5290 5290 5290 5291 5293 5296 5299 5302 5304 5306 5308 5310